Regional Weather Roundup
Issued by NWS Cleveland, OH

Home | Current Version | Previous Version | Graphics & Text | Print | Product List | Glossary On
Versions: 1 2 3 4 5 6 7 8 9 10 11 12 13 14 15 16 17 18 19 20 21 22 23 24 25 26 27 28 29 30 31 32 33 34 35 36 37 38 39 40 41 42 43 44 45 46 47 48 49 50
000
ASUS41 KCLE 180000
RWRCLE
OHIO REGIONAL WEATHER ROUNDUP
NATIONAL WEATHER SERVICE WILMINGTON, OH
800 PM EDT THU AUG 17 2017

NOTE: "FAIR" INDICATES FEW OR NO CLOUDS BELOW 12,000 FEET WITH NO
SIGNIFICANT WEATHER AND/OR OBSTRUCTIONS TO VISIBILITY.

OHZ001>008-015>018-024>027-034-035-043-044-180100-
   NORTHWEST OHIO

CITY           SKY/WX    TMP DP  RH WIND       PRES   REMARKS
DEFIANCE       FAIR      80  66  62 SW12      29.76S
FINDLAY        FAIR      82  68  62 SW10      29.77F
TOLEDO EXPRESS FAIR      81  69  67 SW12      29.74S
TOLEDO EXEC    FAIR      83  69  62 SW12      29.75S
LIMA           FAIR      80  69  69 SW12      29.81R
$$

OHZ009>014-019>023-028>033-038-089-180100-
   NORTHEAST OHIO

CITY           SKY/WX    TMP DP  RH WIND       PRES   REMARKS
CLE-HOPKINS    FAIR      82  73  74 S10G18    29.79F
CLE-LAKEFRONT  FAIR      80  71  74 S12G20    29.75F
CUY CO. ARPT   NOT AVBL
LORAIN-ELYRIA  FAIR      79  68  69 SW12G21   29.78F
ASHTABULA      CLOUDY    75  73  93 S5        29.82S
AKRON-CANTON   CLOUDY    80  72  76 SW14      29.83S
WOOSTER        NOT AVBL
MANSFIELD      FAIR      78  72  81 S12       29.83S
YOUNGSTOWN     TSTM      75  73  94 N13       29.83R FOG
$$

OHZ042-051>053-060>062-070>072-077>081-180100-
  SOUTHWEST OHIO

CITY           SKY/WX    TMP DP  RH WIND       PRES   REMARKS
CINC-COVINGTON CLOUDY    78  76  93 S9        29.87S
CINC-LUNKEN    MOCLDY    80  75  84 SW8       29.86R
HAMILTON       FAIR      79  75  87 SW5       29.86R
DAYTON         NOT AVBL
WRIGHT-PAT AFB NOT AVBL
DAYTON GENERAL FAIR      78  73  84 S15       29.85S
WILMINGTON     MOCLDY    76  74  93 W8        29.87R
$$

OHZ036-037-039>041-045>050-054>059-063>069-073>076-082>088-180100-
  CENTRAL AND SOUTHEAST OHIO

CITY           SKY/WX    TMP DP  RH WIND       PRES   REMARKS
COLUMBUS       CLOUDY    75  71  87 S7        29.84F
OSU AIRPORT    FAIR      76  74  93 S8        29.84S
BOLTON FIELD   NOT AVBL
RICKENBACK AFB NOT AVBL
NEWARK         FAIR      74  71  91 S8        29.85F
MARION         FAIR      77  72  84 SW12      29.82S
LANCASTER      FAIR      74  51  43 CALM      29.86F
ZANESVILLE     FAIR      73  71  93 S7        29.87R
NEW PHILLY     MOCLDY    76  74  93 SW3       29.85S
$$




USA.gov is the U.S. government's official web portal to all federal, state and local government web resources and services.